Location: Antioch
(38.0049°N, 121.8058°W)
Time: 05:33:53
(UTC+00:00)

Cosmos 1898 Rocket - Pass Details

Date: 11 February 2026
Orbit: 749 x 779 km, 74.0° (Epoch: 5 March)

Event Time Altitude Azimuth Distance (km) Brightness Sun altitude
Rises 14:20:39 0° 184° (S) 3,223 6.8 -8.7°
Reaches altitude 10° 14:23:03 10° 180° (S) 2,305 6.1 -8.2°
Maximum altitude 14:28:09 55° 104° (ESE) 932 4.5 -7.2°
Drops below altitude 10° 14:33:18 10° 28° (NNE) 2,334 6.2 -6.2°
Sets 14:35:44 0° 24° (NNE) 3,267 6.9 -5.7°
